Time,TemperatureF,DewpointF,PressureIn,WindDirection,WindDirectionDegrees,WindSpeedMPH,WindSpeedGustMPH,Humidity,HourlyPrecipIn,Conditions,Clouds,dailyrainin,SolarRadiationWatts/m^2,SoftwareType,DateUTC
2013-03-04 00:01:00,28.8,24.0,29.69,WNW,289,2.0,6.0,83,0.00,,,0.00,0,weatherlink.com 1.10,2013-03-04 05:01:00,
2013-03-04 00:16:00,28.9,24.0,29.70,WNW,286,2.0,7.0,81,0.00,,,0.00,0,weatherlink.com 1.10,2013-03-04 05:16:00,
2013-03-04 00:31:00,29.2,23.0,29.70,NW,304,3.0,7.0,79,0.00,,,0.00,0,weatherlink.com 1.10,2013-03-04 05:31:00,
2013-03-04 00:47:00,29.4,23.0,29.71,WSW,240,5.0,7.0,78,0.00,,,0.00,0,weatherlink.com 1.10,2013-03-04 05:47:00,
2013-03-04 01:02:00,29.5,23.0,29.71,WNW,297,5.0,9.0,77,0.00,,,0.00,0,weatherlink.com 1.10,2013-03-04 06:02:00,
2013-03-04 01:17:00,29.4,23.0,29.71,WNW,298,2.0,7.0,77,0.00,,,0.00,0,weatherlink.com 1.10,2013-03-04 06:17:00,
2013-03-04 01:32:00,29.4,23.0,29.71,WNW,294,1.0,7.0,76,0.00,,,0.00,0,weatherlink.com 1.10,2013-03-04 06:32:00,
2013-03-04 01:47:00,29.2,23.0,29.71,WNW,292,1.0,9.0,76,0.00,,,0.00,0,weatherlink.com 1.10,2013-03-04 06:47:00,
2013-03-04 02:02:00,29.1,22.0,29.71,WNW,288,2.0,8.0,76,0.00,,,0.00,0,weatherlink.com 1.10,2013-03-04 07:02:00,
2013-03-04 02:17:00,28.9,22.0,29.71,WNW,294,2.0,9.0,75,0.00,,,0.00,0,weatherlink.com 1.10,2013-03-04 07:17:00,
2013-03-04 02:32:00,28.7,22.0,29.71,WNW,293,2.0,8.0,75,0.00,,,0.00,0,weatherlink.com 1.10,2013-03-04 07:32:00,
2013-03-04 02:47:00,28.6,22.0,29.71,WNW,289,2.0,11.0,75,0.00,,,0.00,0,weatherlink.com 1.10,2013-03-04 07:47:00,
2013-03-04 03:04:00,28.5,22.0,29.71,WNW,296,1.0,8.0,76,0.00,,,0.00,0,weatherlink.com 1.10,2013-03-04 08:04:00,
2013-03-04 03:17:00,28.4,21.0,29.71,WNW,292,2.0,10.0,75,0.00,,,0.00,0,weatherlink.com 1.10,2013-03-04 08:17:00,
2013-03-04 03:32:00,28.4,21.0,29.71,WNW,288,2.0,9.0,75,0.00,,,0.00,0,weatherlink.com 1.10,2013-03-04 08:32:00,
2013-03-04 03:47:00,28.3,22.0,29.72,NW,305,2.0,8.0,76,0.00,,,0.00,0,weatherlink.com 1.10,2013-03-04 08:47:00,
2013-03-04 04:02:00,28.3,22.0,29.72,WNW,300,1.0,8.0,76,0.00,,,0.00,0,weatherlink.com 1.10,2013-03-04 09:02:00,
2013-03-04 04:17:00,28.2,22.0,29.72,WNW,303,3.0,6.0,76,0.00,,,0.00,0,weatherlink.com 1.10,2013-03-04 09:17:00,
2013-03-04 04:32:00,28.1,22.0,29.72,West,281,3.0,8.0,77,0.00,,,0.00,0,weatherlink.com 1.10,2013-03-04 09:32:00,
2013-03-04 04:47:00,28.1,22.0,29.73,NW,309,4.0,7.0,77,0.00,,,0.00,0,weatherlink.com 1.10,2013-03-04 09:47:00,
2013-03-04 05:02:00,28.1,22.0,29.73,West,273,3.0,7.0,77,0.00,,,0.00,0,weatherlink.com 1.10,2013-03-04 10:02:00,
2013-03-04 05:17:00,28.0,22.0,29.73,WNW,292,2.0,9.0,77,0.00,,,0.00,0,weatherlink.com 1.10,2013-03-04 10:17:00,
2013-03-04 05:32:00,28.1,22.0,29.73,NNW,342,0.0,7.0,78,0.00,,,0.00,0,weatherlink.com 1.10,2013-03-04 10:32:00,
2013-03-04 05:47:00,28.0,22.0,29.73,WNW,282,6.0,8.0,78,0.00,,,0.00,0,weatherlink.com 1.10,2013-03-04 10:47:00,
2013-03-04 06:02:00,27.9,22.0,29.74,WNW,292,5.0,9.0,77,0.00,,,0.00,0,weatherlink.com 1.10,2013-03-04 11:02:00,
2013-03-04 06:17:00,27.5,22.0,29.74,NW,313,6.0,9.0,78,0.00,,,0.00,0,weatherlink.com 1.10,2013-03-04 11:17:00,
2013-03-04 06:32:00,27.2,22.0,29.73,West,269,2.0,7.0,79,0.00,,,0.00,5,weatherlink.com 1.10,2013-03-04 11:32:00,
2013-03-04 06:47:00,27.2,22.0,29.73,NW,317,2.0,7.0,79,0.00,,,0.00,9,weatherlink.com 1.10,2013-03-04 11:47:00,
2013-03-04 07:02:00,27.3,22.0,29.74,NW,307,5.0,11.0,79,0.00,,,0.00,12,weatherlink.com 1.10,2013-03-04 12:02:00,
2013-03-04 07:17:00,27.6,22.0,29.74,WNW,298,1.0,9.0,78,0.00,,,0.00,18,weatherlink.com 1.10,2013-03-04 12:17:00,
2013-03-04 07:32:00,28.1,22.0,29.74,NW,307,5.0,10.0,78,0.00,,,0.00,32,weatherlink.com 1.10,2013-03-04 12:32:00,
2013-03-04 07:47:00,29.0,22.0,29.74,WNW,296,2.0,11.0,76,0.00,,,0.00,44,weatherlink.com 1.10,2013-03-04 12:47:00,
2013-03-04 08:02:00,30.3,24.0,29.75,WNW,287,3.0,9.0,76,0.00,,,0.00,156,weatherlink.com 1.10,2013-03-04 13:02:00,
2013-03-04 08:18:00,33.6,26.0,29.75,WNW,303,8.0,10.0,73,0.00,,,0.00,415,weatherlink.com 1.10,2013-03-04 13:18:00,
2013-03-04 08:33:00,37.1,26.0,29.75,WNW,285,5.0,10.0,65,0.00,,,0.00,531,weatherlink.com 1.10,2013-03-04 13:33:00,
2013-03-04 08:48:00,36.2,25.0,29.74,West,263,7.0,9.0,63,0.00,,,0.00,207,weatherlink.com 1.10,2013-03-04 13:48:00,
2013-03-04 09:03:00,34.6,24.0,29.74,WNW,284,3.0,8.0,66,0.00,,,0.00,202,weatherlink.com 1.10,2013-03-04 14:03:00,
2013-03-04 09:18:00,35.0,25.0,29.74,West,269,7.0,7.0,68,0.00,,,0.00,638,weatherlink.com 1.10,2013-03-04 14:18:00,
2013-03-04 09:33:00,39.4,26.0,29.74,WNW,293,7.0,12.0,60,0.00,,,0.00,631,weatherlink.com 1.10,2013-03-04 14:33:00,
2013-03-04 09:48:00,41.0,27.0,29.74,WNW,299,1.0,10.0,57,0.00,,,0.00,729,weatherlink.com 1.10,2013-03-04 14:48:00,
2013-03-04 10:03:00,42.2,27.0,29.74,NNW,331,3.0,9.0,56,0.00,,,0.00,768,weatherlink.com 1.10,2013-03-04 15:03:00,
2013-03-04 10:18:00,42.0,27.0,29.73,WSW,247,6.0,13.0,55,0.00,,,0.00,747,weatherlink.com 1.10,2013-03-04 15:18:00,
2013-03-04 10:33:00,41.8,27.0,29.73,WNW,289,4.0,13.0,57,0.00,,,0.00,703,weatherlink.com 1.10,2013-03-04 15:33:00,
2013-03-04 10:48:00,44.3,27.0,29.72,NNE,20,1.0,12.0,52,0.00,,,0.00,830,weatherlink.com 1.10,2013-03-04 15:48:00,
2013-03-04 11:03:00,42.4,27.0,29.72,NW,319,3.0,12.0,55,0.00,,,0.00,865,weatherlink.com 1.10,2013-03-04 16:03:00,
2013-03-04 11:18:00,45.2,28.0,29.72,NW,307,6.0,11.0,51,0.00,,,0.00,939,weatherlink.com 1.10,2013-03-04 16:18:00,
2013-03-04 11:33:00,43.5,26.0,29.72,WNW,286,8.0,11.0,50,0.00,,,0.00,613,weatherlink.com 1.10,2013-03-04 16:33:00,
2013-03-04 11:49:00,42.5,26.0,29.71,WNW,288,9.0,12.0,53,0.00,,,0.00,879,weatherlink.com 1.10,2013-03-04 16:49:00,
2013-03-04 12:03:00,43.2,26.0,29.71,West,278,5.0,14.0,51,0.00,,,0.00,958,weatherlink.com 1.10,2013-03-04 17:03:00,
2013-03-04 12:18:00,42.4,26.0,29.71,NW,312,8.0,14.0,53,0.00,,,0.00,248,weatherlink.com 1.10,2013-03-04 17:18:00,
2013-03-04 12:33:00,43.8,27.0,29.71,WNW,291,4.0,11.0,51,0.00,,,0.00,469,weatherlink.com 1.10,2013-03-04 17:33:00,
2013-03-04 12:48:00,43.1,25.0,29.70,West,276,3.0,15.0,50,0.00,,,0.00,951,weatherlink.com 1.10,2013-03-04 17:48:00,
2013-03-04 13:03:00,43.1,25.0,29.70,WNW,288,5.0,14.0,50,0.00,,,0.00,248,weatherlink.com 1.10,2013-03-04 18:03:00,
2013-03-04 13:18:00,43.3,26.0,29.70,WNW,284,4.0,11.0,50,0.00,,,0.00,346,weatherlink.com 1.10,2013-03-04 18:18:00,
2013-03-04 13:33:00,42.8,26.0,29.70,NE,38,2.0,14.0,51,0.00,,,0.00,274,weatherlink.com 1.10,2013-03-04 18:33:00,
2013-03-04 13:48:00,43.0,25.0,29.69,WNW,300,10.0,12.0,50,0.00,,,0.00,221,weatherlink.com 1.10,2013-03-04 18:48:00,
2013-03-04 14:03:00,43.8,26.0,29.70,NNW,327,4.0,18.0,50,0.00,,,0.00,840,weatherlink.com 1.10,2013-03-04 19:03:00,
2013-03-04 14:18:00,45.1,26.0,29.70,WSW,245,9.0,15.0,48,0.00,,,0.00,657,weatherlink.com 1.10,2013-03-04 19:18:00,
2013-03-04 14:33:00,45.1,25.0,29.69,WNW,291,7.0,17.0,46,0.00,,,0.00,754,weatherlink.com 1.10,2013-03-04 19:33:00,
2013-03-04 14:48:00,45.1,26.0,29.70,WSW,250,7.0,12.0,48,0.00,,,0.00,633,weatherlink.com 1.10,2013-03-04 19:48:00,
2013-03-04 15:03:00,44.9,26.0,29.70,NW,316,7.0,16.0,47,0.00,,,0.00,626,weatherlink.com 1.10,2013-03-04 20:03:00,
2013-03-04 15:18:00,46.6,27.0,29.70,WNW,285,9.0,10.0,46,0.00,,,0.00,541,weatherlink.com 1.10,2013-03-04 20:18:00,
2013-03-04 15:48:00,45.1,25.0,29.70,WSW,254,5.0,11.0,46,0.00,,,0.00,415,weatherlink.com 1.10,2013-03-04 20:48:00,
2013-03-04 16:03:00,43.6,24.0,29.70,NNE,26,1.0,14.0,47,0.00,,,0.00,362,weatherlink.com 1.10,2013-03-04 21:03:00,
2013-03-04 16:18:00,42.8,25.0,29.71,NW,317,4.0,14.0,49,0.00,,,0.00,294,weatherlink.com 1.10,2013-03-04 21:18:00,
2013-03-04 16:33:00,41.2,24.0,29.72,West,281,1.0,11.0,50,0.00,,,0.00,88,weatherlink.com 1.10,2013-03-04 21:33:00,
2013-03-04 16:48:00,38.2,23.0,29.72,WSW,253,5.0,17.0,54,0.00,,,0.00,37,weatherlink.com 1.10,2013-03-04 21:48:00,
2013-03-04 17:03:00,36.8,23.0,29.73,WNW,288,4.0,15.0,57,0.00,,,0.00,19,weatherlink.com 1.10,2013-03-04 22:03:00,
2013-03-04 17:18:00,36.1,23.0,29.73,WNW,293,6.0,9.0,59,0.00,,,0.00,16,weatherlink.com 1.10,2013-03-04 22:18:00,
2013-03-04 17:33:00,35.2,22.0,29.74,WNW,284,5.0,11.0,60,0.00,,,0.00,9,weatherlink.com 1.10,2013-03-04 22:33:00,
2013-03-04 17:48:00,34.5,23.0,29.74,WSW,258,4.0,10.0,62,0.00,,,0.00,0,weatherlink.com 1.10,2013-03-04 22:48:00,
2013-03-04 18:03:00,33.8,22.0,29.75,South,188,4.0,12.0,63,0.00,,,0.00,0,weatherlink.com 1.10,2013-03-04 23:03:00,
2013-03-04 18:18:00,33.2,22.0,29.76,NW,321,5.0,10.0,64,0.00,,,0.00,0,weatherlink.com 1.10,2013-03-04 23:18:00,
2013-03-04 18:34:00,32.6,22.0,29.77,WNW,296,4.0,10.0,66,0.00,,,0.00,0,weatherlink.com 1.10,2013-03-04 23:34:00,
2013-03-04 18:49:00,32.1,22.0,29.77,WNW,284,8.0,10.0,67,0.00,,,0.00,0,weatherlink.com 1.10,2013-03-04 23:49:00,
2013-03-04 19:04:00,31.8,22.0,29.77,West,272,7.0,8.0,67,0.00,,,0.00,0,weatherlink.com 1.10,2013-03-05 00:04:00,
2013-03-04 19:19:00,31.4,22.0,29.78,West,277,4.0,8.0,69,0.00,,,0.00,0,weatherlink.com 1.10,2013-03-05 00:19:00,
2013-03-04 19:34:00,31.1,22.0,29.78,WNW,290,7.0,9.0,70,0.00,,,0.00,0,weatherlink.com 1.10,2013-03-05 00:34:00,
2013-03-04 19:49:00,31.0,22.0,29.79,NW,305,3.0,11.0,70,0.00,,,0.00,0,weatherlink.com 1.10,2013-03-05 00:49:00,
2013-03-04 20:04:00,30.8,22.0,29.79,WNW,288,2.0,10.0,70,0.00,,,0.00,0,weatherlink.com 1.10,2013-03-05 01:04:00,
2013-03-04 20:19:00,30.7,22.0,29.79,WNW,302,5.0,8.0,71,0.00,,,0.00,0,weatherlink.com 1.10,2013-03-05 01:19:00,
2013-03-04 20:34:00,30.8,22.0,29.80,West,262,3.0,8.0,71,0.00,,,0.00,0,weatherlink.com 1.10,2013-03-05 01:34:00,
2013-03-04 20:49:00,30.9,23.0,29.80,NW,315,0.0,8.0,72,0.00,,,0.00,0,weatherlink.com 1.10,2013-03-05 01:49:00,
2013-03-04 21:04:00,30.8,23.0,29.80,NW,304,2.0,15.0,72,0.00,,,0.00,0,weatherlink.com 1.10,2013-03-05 02:04:00,
2013-03-04 21:19:00,30.8,23.0,29.80,WNW,284,4.0,12.0,72,0.00,,,0.00,0,weatherlink.com 1.10,2013-03-05 02:19:00,
2013-03-04 21:34:00,30.7,23.0,29.81,West,277,3.0,9.0,73,0.00,,,0.00,0,weatherlink.com 1.10,2013-03-05 02:34:00,
2013-03-04 21:49:00,30.8,23.0,29.81,SW,225,2.0,8.0,73,0.00,,,0.00,0,weatherlink.com 1.10,2013-03-05 02:49:00,
2013-03-04 22:04:00,30.9,23.0,29.81,WNW,294,5.0,7.0,73,0.00,,,0.00,0,weatherlink.com 1.10,2013-03-05 03:04:00,
2013-03-04 22:19:00,30.7,23.0,29.81,WNW,302,1.0,12.0,73,0.00,,,0.00,0,weatherlink.com 1.10,2013-03-05 03:19:00,
2013-03-04 22:34:00,30.3,23.0,29.82,NW,319,1.0,8.0,74,0.00,,,0.00,0,weatherlink.com 1.10,2013-03-05 03:34:00,
2013-03-04 22:49:00,30.1,23.0,29.82,WNW,292,3.0,11.0,75,0.00,,,0.00,0,weatherlink.com 1.10,2013-03-05 03:49:00,
2013-03-04 23:04:00,30.0,23.0,29.82,NW,305,2.0,7.0,75,0.00,,,0.00,0,weatherlink.com 1.10,2013-03-05 04:04:00,
2013-03-04 23:19:00,29.8,23.0,29.82,WNW,290,6.0,9.0,76,0.00,,,0.00,0,weatherlink.com 1.10,2013-03-05 04:19:00,
2013-03-04 23:34:00,29.8,23.0,29.83,WNW,298,4.0,7.0,76,0.00,,,0.00,0,weatherlink.com 1.10,2013-03-05 04:34:00,
2013-03-04 23:49:00,29.8,23.0,29.84,WNW,285,2.0,8.0,76,0.00,,,0.00,0,weatherlink.com 1.10,2013-03-05 04:49:00,